Time,TemperatureF,DewpointF,PressureIn,WindDirection,WindDirectionDegrees,WindSpeedMPH,WindSpeedGustMPH,Humidity,HourlyPrecipIn,Conditions,Clouds,dailyrainin,SoftwareType,DateUTC
2013-04-20 00:01:00,35.4,29.2,30.01,WNW,302,8.3,11.5,78,0.00,CLR,,0.00,WeatherDisplay:10.37,2013-04-20 05:01:00,
2013-04-20 00:06:00,35.4,28.9,30.02,WNW,290,11.8,16.1,77,0.00,CLR,,0.00,WeatherDisplay:10.37,2013-04-20 05:06:00,
2013-04-20 00:11:00,35.4,29.2,30.02,WNW,302,9.7,12.7,78,0.00,CLR,,0.00,WeatherDisplay:10.37,2013-04-20 05:11:00,
2013-04-20 00:16:00,35.4,28.9,30.02,NW,307,11.6,15.0,77,0.00,CLR,,0.00,WeatherDisplay:10.37,2013-04-20 05:16:00,
2013-04-20 00:21:00,35.3,29.1,30.02,NW,305,10.6,12.7,78,0.00,CLR,,0.00,WeatherDisplay:10.37,2013-04-20 05:21:00,
2013-04-20 00:26:00,35.2,29.0,30.03,WNW,298,11.3,13.8,78,0.00,CLR,,0.00,WeatherDisplay:10.37,2013-04-20 05:26:00,
2013-04-20 00:31:00,35.1,29.2,30.03,WNW,287,9.9,13.8,79,0.00,CLR,,0.00,WeatherDisplay:10.37,2013-04-20 05:31:00,
2013-04-20 00:36:00,35.0,29.1,30.03,WNW,300,10.5,13.8,79,0.00,CLR,,0.00,WeatherDisplay:10.37,2013-04-20 05:36:00,
2013-04-20 00:41:00,34.8,29.3,30.03,WNW,299,7.5,10.4,80,0.00,CLR,,0.00,WeatherDisplay:10.37,2013-04-20 05:41:00,
2013-04-20 00:47:00,34.5,29.0,30.04,WNW,291,7.9,12.7,80,0.00,CLR,,0.00,WeatherDisplay:10.37,2013-04-20 05:47:00,
2013-04-20 00:52:00,34.3,28.8,30.04,WNW,299,9.5,11.5,80,0.00,CLR,,0.00,WeatherDisplay:10.37,2013-04-20 05:52:00,
2013-04-20 00:57:00,34.1,28.9,30.04,WNW,288,8.3,10.0,81,0.00,CLR,,0.00,WeatherDisplay:10.37,2013-04-20 05:57:00,
2013-04-20 01:02:00,33.9,29.0,30.04,NW,309,8.3,11.5,82,0.00,CLR,,0.00,WeatherDisplay:10.37,2013-04-20 06:02:00,
2013-04-20 01:07:00,33.8,28.6,30.04,WNW,294,9.9,11.5,81,0.00,CLR,,0.00,WeatherDisplay:10.37,2013-04-20 06:07:00,
2013-04-20 01:12:00,33.7,28.8,30.04,WNW,302,8.2,11.5,82,0.00,CLR,,0.00,WeatherDisplay:10.37,2013-04-20 06:12:00,
2013-04-20 01:17:00,33.5,28.9,30.04,WNW,295,7.5,9.2,83,0.00,CLR,,0.00,WeatherDisplay:10.37,2013-04-20 06:17:00,
2013-04-20 01:22:00,33.5,28.9,30.04,WNW,288,7.7,10.4,83,0.00,CLR,,0.00,WeatherDisplay:10.37,2013-04-20 06:22:00,
2013-04-20 01:27:00,33.4,28.8,30.05,WNW,295,8.3,9.2,83,0.00,CLR,,0.00,WeatherDisplay:10.37,2013-04-20 06:27:00,
2013-04-20 01:32:00,33.4,28.8,30.05,WNW,297,8.9,11.0,83,0.00,CLR,,0.00,WeatherDisplay:10.37,2013-04-20 06:32:00,
2013-04-20 01:37:00,33.4,28.8,30.05,WNW,293,7.5,9.2,83,0.00,CLR,,0.00,WeatherDisplay:10.37,2013-04-20 06:37:00,
2013-04-20 01:42:00,33.2,28.9,30.05,WNW,300,6.5,8.1,84,0.00,CLR,,0.00,WeatherDisplay:10.37,2013-04-20 06:42:00,
2013-04-20 01:47:00,33.0,28.7,30.05,WNW,295,6.5,8.1,84,0.00,CLR,,0.00,WeatherDisplay:10.37,2013-04-20 06:47:00,
2013-04-20 01:52:00,33.0,28.7,30.05,WNW,302,7.4,10.4,84,0.00,CLR,,0.00,WeatherDisplay:10.37,2013-04-20 06:52:00,
2013-04-20 01:57:00,32.9,28.6,30.05,WNW,293,7.6,9.2,84,0.00,CLR,,0.00,WeatherDisplay:10.37,2013-04-20 06:57:00,
2013-04-20 02:02:00,32.9,28.6,30.05,WNW,299,7.2,11.5,84,0.00,CLR,,0.00,WeatherDisplay:10.37,2013-04-20 07:02:00,
2013-04-20 02:07:00,32.8,28.5,30.05,NW,312,6.5,9.2,84,0.00,CLR,,0.00,WeatherDisplay:10.37,2013-04-20 07:07:00,
2013-04-20 02:12:00,32.8,28.5,30.05,WNW,297,9.5,11.5,84,0.00,CLR,,0.00,WeatherDisplay:10.37,2013-04-20 07:12:00,
2013-04-20 02:17:00,32.9,28.6,30.06,WNW,295,6.4,9.2,84,0.00,CLR,,0.00,WeatherDisplay:10.37,2013-04-20 07:17:00,
2013-04-20 02:22:00,32.9,28.6,30.05,WNW,297,6.7,10.4,84,0.00,CLR,,0.00,WeatherDisplay:10.37,2013-04-20 07:22:00,
2013-04-20 02:27:00,32.7,28.4,30.06,WNW,298,5.9,8.1,84,0.00,CLR,,0.00,WeatherDisplay:10.37,2013-04-20 07:27:00,
2013-04-20 02:32:00,32.8,28.5,30.06,NW,311,5.8,8.1,84,0.00,CLR,,0.00,WeatherDisplay:10.37,2013-04-20 07:32:00,
2013-04-20 02:37:00,32.7,28.4,30.06,WNW,302,8.6,10.4,84,0.00,CLR,,0.00,WeatherDisplay:10.37,2013-04-20 07:37:00,
2013-04-20 02:42:00,32.7,28.4,30.06,NW,305,9.9,12.7,84,0.00,CLR,,0.00,WeatherDisplay:10.37,2013-04-20 07:42:00,
2013-04-20 02:47:00,32.7,28.4,30.06,NW,311,8.1,10.0,84,0.00,CLR,,0.00,WeatherDisplay:10.37,2013-04-20 07:47:00,
2013-04-20 02:52:00,32.6,28.3,30.06,WNW,302,7.5,11.5,84,0.00,CLR,,0.00,WeatherDisplay:10.37,2013-04-20 07:52:00,
2013-04-20 02:57:00,32.6,28.3,30.06,NNW,328,9.1,11.5,84,0.00,CLR,,0.00,WeatherDisplay:10.37,2013-04-20 07:57:00,
2013-04-20 03:02:00,32.4,28.4,30.06,NW,325,7.4,9.2,85,0.00,CLR,,0.00,WeatherDisplay:10.37,2013-04-20 08:02:00,
2013-04-20 03:07:00,32.3,28.3,30.07,NW,304,7.9,10.4,85,0.00,CLR,,0.00,WeatherDisplay:10.37,2013-04-20 08:07:00,
2013-04-20 03:12:00,32.2,28.2,30.07,NW,311,5.8,10.4,85,0.00,CLR,,0.00,WeatherDisplay:10.37,2013-04-20 08:12:00,
2013-04-20 03:17:00,32.2,28.5,30.07,WNW,297,7.4,9.2,86,0.00,CLR,,0.00,WeatherDisplay:10.37,2013-04-20 08:17:00,
2013-04-20 03:22:00,32.2,28.5,30.07,WNW,303,7.6,9.2,86,0.00,CLR,,0.00,WeatherDisplay:10.37,2013-04-20 08:22:00,
2013-04-20 03:27:00,32.0,28.3,30.07,NW,311,6.5,9.0,86,0.00,CLR,,0.00,WeatherDisplay:10.37,2013-04-20 08:27:00,
2013-04-20 03:32:00,31.9,28.2,30.07,NW,324,6.5,8.1,86,0.00,CLR,,0.00,WeatherDisplay:10.37,2013-04-20 08:32:00,
2013-04-20 03:37:00,31.9,28.2,30.08,NW,309,6.6,9.2,86,0.00,CLR,,0.00,WeatherDisplay:10.37,2013-04-20 08:37:00,
2013-04-20 03:42:00,31.9,28.2,30.08,NW,313,6.2,8.1,86,0.00,CLR,,0.00,WeatherDisplay:10.37,2013-04-20 08:42:00,
2013-04-20 03:47:00,32.0,28.3,30.08,WNW,295,7.8,8.1,86,0.00,CLR,,0.00,WeatherDisplay:10.37,2013-04-20 08:47:00,
2013-04-20 03:52:00,31.9,28.2,30.08,NW,312,7.0,11.5,86,0.00,CLR,,0.00,WeatherDisplay:10.37,2013-04-20 08:52:00,
2013-04-20 03:57:00,31.8,28.4,30.08,NW,307,7.4,8.1,87,0.00,CLR,,0.00,WeatherDisplay:10.37,2013-04-20 08:57:00,
2013-04-20 04:02:00,31.9,28.5,30.09,WNW,302,6.4,10.4,87,0.00,CLR,,0.00,WeatherDisplay:10.37,2013-04-20 09:02:00,
2013-04-20 04:07:00,31.8,28.4,30.09,NW,311,7.2,9.2,87,0.00,CLR,,0.00,WeatherDisplay:10.37,2013-04-20 09:07:00,
2013-04-20 04:12:00,31.7,28.3,30.09,NW,307,5.7,8.1,87,0.00,CLR,,0.00,WeatherDisplay:10.37,2013-04-20 09:12:00,
2013-04-20 04:17:00,31.6,28.2,30.09,NW,307,5.1,6.9,87,0.00,CLR,,0.00,WeatherDisplay:10.37,2013-04-20 09:17:00,
2013-04-20 04:22:00,31.5,28.4,30.10,NW,304,4.5,5.8,88,0.00,CLR,,0.00,WeatherDisplay:10.37,2013-04-20 09:22:00,
2013-04-20 04:27:00,31.3,28.2,30.09,NW,308,5.2,6.9,88,0.00,CLR,,0.00,WeatherDisplay:10.37,2013-04-20 09:27:00,
2013-04-20 04:32:00,31.3,28.2,30.10,NNW,332,5.7,6.9,88,0.00,CLR,,0.00,WeatherDisplay:10.37,2013-04-20 09:32:00,
2013-04-20 04:37:00,31.3,28.2,30.10,NW,309,4.5,6.9,88,0.00,CLR,,0.00,WeatherDisplay:10.37,2013-04-20 09:37:00,
2013-04-20 04:42:00,31.3,28.2,30.10,NW,312,5.7,8.1,88,0.00,CLR,,0.00,WeatherDisplay:10.37,2013-04-20 09:42:00,
2013-04-20 04:47:00,31.3,28.2,30.11,WNW,302,4.3,4.6,88,0.00,CLR,,0.00,WeatherDisplay:10.37,2013-04-20 09:47:00,
2013-04-20 04:52:00,31.1,28.2,30.11,WNW,297,4.2,7.0,89,0.00,CLR,,0.00,WeatherDisplay:10.37,2013-04-20 09:52:00,
2013-04-20 04:57:00,31.1,28.2,30.11,NW,322,5.5,8.1,89,0.00,CLR,,0.00,WeatherDisplay:10.37,2013-04-20 09:57:00,
2013-04-20 05:02:00,31.0,28.1,30.11,NW,312,7.2,8.1,89,0.00,CLR,,0.00,WeatherDisplay:10.37,2013-04-20 10:02:00,
2013-04-20 05:07:00,31.0,28.1,30.11,WNW,302,5.4,7.0,89,0.00,CLR,,0.00,WeatherDisplay:10.37,2013-04-20 10:07:00,
2013-04-20 05:12:00,30.9,28.0,30.12,NW,305,4.3,5.0,89,0.00,CLR,,0.00,WeatherDisplay:10.37,2013-04-20 10:12:00,
2013-04-20 05:17:00,30.9,28.0,30.12,NW,308,4.0,5.8,89,0.00,CLR,,0.00,WeatherDisplay:10.37,2013-04-20 10:17:00,
2013-04-20 05:22:00,30.7,28.1,30.12,NW,309,3.8,5.8,90,0.00,CLR,,0.00,WeatherDisplay:10.37,2013-04-20 10:22:00,
2013-04-20 05:27:00,30.8,28.2,30.12,NW,304,4.1,7.0,90,0.00,CLR,,0.00,WeatherDisplay:10.37,2013-04-20 10:27:00,
2013-04-20 05:32:00,30.7,27.8,30.12,WNW,297,3.2,4.6,89,0.00,CLR,,0.00,WeatherDisplay:10.37,2013-04-20 10:32:00,
2013-04-20 05:37:00,30.6,28.0,30.12,WNW,302,2.4,3.5,90,0.00,CLR,,0.00,WeatherDisplay:10.37,2013-04-20 10:37:00,
2013-04-20 05:42:00,30.3,27.7,30.12,WNW,302,3.2,5.0,90,0.00,CLR,,0.00,WeatherDisplay:10.37,2013-04-20 10:42:00,
2013-04-20 05:47:00,30.2,27.9,30.13,WNW,293,2.3,3.5,91,0.00,CLR,,0.00,WeatherDisplay:10.37,2013-04-20 10:47:00,
2013-04-20 05:52:00,30.0,27.7,30.13,WNW,285,2.9,4.0,91,0.00,CLR,,0.00,WeatherDisplay:10.37,2013-04-20 10:52:00,
2013-04-20 05:57:00,30.1,27.8,30.14,WNW,293,2.7,3.5,91,0.00,CLR,,0.00,WeatherDisplay:10.37,2013-04-20 10:57:00,
2013-04-20 06:02:00,29.8,27.5,30.14,WNW,302,1.8,2.3,91,0.00,CLR,,0.00,WeatherDisplay:10.37,2013-04-20 11:02:00,
2013-04-20 06:07:00,29.7,27.4,30.14,WNW,295,3.0,3.5,91,0.00,CLR,,0.00,WeatherDisplay:10.37,2013-04-20 11:07:00,
2013-04-20 06:12:00,29.7,27.4,30.15,WNW,300,2.9,4.0,91,0.00,CLR,,0.00,WeatherDisplay:10.37,2013-04-20 11:12:00,
2013-04-20 06:17:00,29.7,27.4,30.14,NW,308,3.5,4.0,91,0.00,CLR,,0.00,WeatherDisplay:10.37,2013-04-20 11:17:00,
2013-04-20 06:22:00,29.8,27.8,30.15,NW,305,3.2,3.5,92,0.00,CLR,,0.00,WeatherDisplay:10.37,2013-04-20 11:22:00,
2013-04-20 06:27:00,30.0,27.7,30.15,NW,305,3.2,3.5,91,0.00,CLR,,0.00,WeatherDisplay:10.37,2013-04-20 11:27:00,
2013-04-20 06:32:00,30.1,27.8,30.15,NW,307,2.1,3.5,91,0.00,CLR,,0.00,WeatherDisplay:10.37,2013-04-20 11:32:00,
2013-04-20 06:37:00,30.0,27.7,30.16,NW,304,1.4,2.3,91,0.00,CLR,,0.00,WeatherDisplay:10.37,2013-04-20 11:37:00,
2013-04-20 06:42:00,29.9,27.6,30.16,West,281,0.3,1.1,91,0.00,CLR,,0.00,WeatherDisplay:10.37,2013-04-20 11:42:00,
2013-04-20 06:47:00,29.8,27.8,30.16,West,270,0.0,0.0,92,0.00,CLR,,0.00,WeatherDisplay:10.37,2013-04-20 11:47:00,
2013-04-20 06:52:00,30.0,28.2,30.17,West,262,0.0,0.0,93,0.00,CLR,,0.00,WeatherDisplay:10.37,2013-04-20 11:52:00,
2013-04-20 06:57:00,30.3,28.5,30.17,WSW,256,0.2,1.1,93,0.00,CLR,,0.00,WeatherDisplay:10.37,2013-04-20 11:57:00,
2013-04-20 07:02:00,30.6,28.6,30.17,West,273,0.6,2.3,92,0.00,CLR,,0.00,WeatherDisplay:10.37,2013-04-20 12:02:00,
2013-04-20 07:07:00,30.8,28.5,30.17,West,278,1.6,3.5,91,0.00,CLR,,0.00,WeatherDisplay:10.37,2013-04-20 12:07:00,
2013-04-20 07:12:00,30.9,28.6,30.18,WNW,293,1.3,3.5,91,0.00,CLR,,0.00,WeatherDisplay:10.37,2013-04-20 12:12:00,
2013-04-20 07:17:00,31.2,28.9,30.18,WNW,292,1.7,3.5,91,0.00,CLR,,0.00,WeatherDisplay:10.37,2013-04-20 12:17:00,
2013-04-20 07:22:00,31.5,28.9,30.18,West,278,2.7,3.5,90,0.00,CLR,,0.00,WeatherDisplay:10.37,2013-04-20 12:22:00,
2013-04-20 07:27:00,31.7,29.1,30.18,WNW,295,1.9,2.3,90,0.00,CLR,,0.00,WeatherDisplay:10.37,2013-04-20 12:27:00,
2013-04-20 07:32:00,31.8,29.2,30.19,WNW,288,2.8,3.5,90,0.00,CLR,,0.00,WeatherDisplay:10.37,2013-04-20 12:32:00,
2013-04-20 07:37:00,32.0,29.4,30.19,WNW,283,3.1,3.5,90,0.00,CLR,,0.00,WeatherDisplay:10.37,2013-04-20 12:37:00,
2013-04-20 07:42:00,32.1,29.2,30.19,WNW,297,1.9,3.5,89,0.00,CLR,,0.00,WeatherDisplay:10.37,2013-04-20 12:42:00,
2013-04-20 07:47:00,32.6,29.7,30.20,WNW,288,2.0,3.5,89,0.00,CLR,,0.00,WeatherDisplay:10.37,2013-04-20 12:47:00,
2013-04-20 07:52:00,33.1,30.2,30.20,WNW,294,3.0,4.0,89,0.00,CLR,,0.00,WeatherDisplay:10.37,2013-04-20 12:52:00,
2013-04-20 07:57:00,33.4,29.9,30.20,NW,316,2.8,3.5,87,0.00,CLR,,0.00,WeatherDisplay:10.37,2013-04-20 12:57:00,
2013-04-20 08:02:00,33.6,29.9,30.21,NW,314,2.4,4.6,86,0.00,CLR,,0.00,WeatherDisplay:10.37,2013-04-20 13:02:00,
2013-04-20 08:07:00,33.9,30.2,30.21,WNW,291,3.0,3.5,86,0.00,CLR,,0.00,WeatherDisplay:10.37,2013-04-20 13:07:00,
2013-04-20 08:12:00,34.2,30.4,30.21,WNW,290,2.5,3.5,86,0.00,CLR,,0.00,WeatherDisplay:10.37,2013-04-20 13:12:00,
2013-04-20 08:17:00,34.4,30.6,30.22,NW,305,2.5,3.5,86,0.00,CLR,,0.00,WeatherDisplay:10.37,2013-04-20 13:17:00,
2013-04-20 08:22:00,34.6,30.6,30.22,WNW,295,2.7,4.0,85,0.00,CLR,,0.00,WeatherDisplay:10.37,2013-04-20 13:22:00,
2013-04-20 08:27:00,34.8,30.8,30.22,NW,314,4.1,5.8,85,0.00,CLR,,0.00,WeatherDisplay:10.37,2013-04-20 13:27:00,
2013-04-20 08:32:00,35.1,30.5,30.22,WNW,302,2.3,4.0,83,0.00,CLR,,0.00,WeatherDisplay:10.37,2013-04-20 13:32:00,
2013-04-20 08:38:00,35.4,31.3,30.22,WNW,300,3.3,5.8,85,0.00,CLR,,0.00,WeatherDisplay:10.37,2013-04-20 13:38:00,
2013-04-20 08:43:00,35.6,30.9,30.23,NW,307,2.8,5.8,83,0.00,CLR,,0.00,WeatherDisplay:10.37,2013-04-20 13:43:00,
2013-04-20 08:48:00,35.7,31.3,30.23,ENE,61,1.0,4.6,84,0.00,CLR,,0.00,WeatherDisplay:10.37,2013-04-20 13:48:00,
2013-04-20 08:53:00,36.3,31.9,30.23,NNE,20,3.4,4.6,84,0.00,CLR,,0.00,WeatherDisplay:10.37,2013-04-20 13:53:00,
2013-04-20 08:58:00,36.3,31.3,30.24,NNE,27,2.5,4.0,82,0.00,CLR,,0.00,WeatherDisplay:10.37,2013-04-20 13:58:00,
2013-04-20 09:03:00,36.1,30.5,30.24,NE,37,2.2,3.5,80,0.00,CLR,,0.00,WeatherDisplay:10.37,2013-04-20 14:03:00,
2013-04-20 09:08:00,36.3,30.7,30.24,WNW,300,2.9,3.5,80,0.00,CLR,,0.00,WeatherDisplay:10.37,2013-04-20 14:08:00,
2013-04-20 09:13:00,36.6,31.9,30.24,WNW,300,2.4,6.9,83,0.00,CLR,,0.00,WeatherDisplay:10.37,2013-04-20 14:13:00,
2013-04-20 09:18:00,37.0,32.0,30.24,NW,323,0.3,1.1,82,0.00,CLR,,0.00,WeatherDisplay:10.37,2013-04-20 14:18:00,
2013-04-20 09:23:00,37.4,32.1,30.24,WNW,290,1.5,2.3,81,0.00,CLR,,0.00,WeatherDisplay:10.37,2013-04-20 14:23:00,
2013-04-20 09:28:00,37.5,31.6,30.25,WNW,283,1.8,4.6,79,0.00,CLR,,0.00,WeatherDisplay:10.37,2013-04-20 14:28:00,
2013-04-20 09:33:00,37.1,30.9,30.25,ESE,105,0.3,1.1,78,0.00,CLR,,0.00,WeatherDisplay:10.37,2013-04-20 14:33:00,
2013-04-20 09:38:00,37.6,32.0,30.25,South,183,2.8,3.5,80,0.00,CLR,,0.00,WeatherDisplay:10.37,2013-04-20 14:38:00,
2013-04-20 09:43:00,37.7,32.1,30.26,South,183,2.3,4.0,80,0.00,CLR,,0.00,WeatherDisplay:10.37,2013-04-20 14:43:00,
2013-04-20 09:48:00,37.9,31.3,30.26,South,183,0.7,3.5,77,0.00,CLR,,0.00,WeatherDisplay:10.37,2013-04-20 14:48:00,
2013-04-20 09:53:00,38.4,32.8,30.26,South,183,1.1,2.3,80,0.00,CLR,,0.00,WeatherDisplay:10.37,2013-04-20 14:53:00,
2013-04-20 09:58:00,38.7,32.1,30.26,South,183,0.3,1.1,77,0.00,CLR,,0.00,WeatherDisplay:10.37,2013-04-20 14:58:00,
2013-04-20 10:03:00,39.4,33.1,30.27,WNW,300,2.9,5.0,78,0.00,CLR,,0.00,WeatherDisplay:10.37,2013-04-20 15:03:00,
2013-04-20 10:08:00,39.2,32.6,30.27,WNW,299,2.4,5.8,77,0.00,CLR,,0.00,WeatherDisplay:10.37,2013-04-20 15:08:00,
2013-04-20 10:13:00,39.0,31.7,30.27,NE,53,0.3,1.1,75,0.00,CLR,,0.00,WeatherDisplay:10.37,2013-04-20 15:13:00,
2013-04-20 10:18:00,39.5,32.9,30.27,WNW,285,1.6,3.5,77,0.00,CLR,,0.00,WeatherDisplay:10.37,2013-04-20 15:18:00,
2013-04-20 10:23:00,39.3,31.7,30.27,SW,221,0.2,2.3,74,0.00,CLR,,0.00,WeatherDisplay:10.37,2013-04-20 15:23:00,
2013-04-20 10:28:00,39.3,31.7,30.28,WNW,282,2.3,4.0,74,0.00,CLR,,0.00,WeatherDisplay:10.37,2013-04-20 15:28:00,
2013-04-20 10:33:00,39.6,32.7,30.28,WSW,253,1.4,4.0,76,0.00,CLR,,0.00,WeatherDisplay:10.37,2013-04-20 15:33:00,
2013-04-20 10:38:00,39.7,32.4,30.28,WSW,256,3.2,4.0,75,0.00,CLR,,0.00,WeatherDisplay:10.37,2013-04-20 15:38:00,
2013-04-20 10:43:00,40.2,32.6,30.28,West,269,1.5,6.0,74,0.00,CLR,,0.00,WeatherDisplay:10.37,2013-04-20 15:43:00,
2013-04-20 10:48:00,40.3,32.7,30.28,West,267,1.2,3.5,74,0.00,CLR,,0.00,WeatherDisplay:10.37,2013-04-20 15:48:00,
2013-04-20 10:53:00,40.8,33.5,30.28,NE,36,2.7,4.6,75,0.00,CLR,,0.00,WeatherDisplay:10.37,2013-04-20 15:53:00,
2013-04-20 10:58:00,41.1,32.4,30.28,West,275,3.0,5.8,71,0.00,CLR,,0.00,WeatherDisplay:10.37,2013-04-20 15:58:00,
2013-04-20 11:03:00,40.9,32.2,30.28,WSW,252,5.2,8.1,71,0.00,CLR,,0.00,WeatherDisplay:10.37,2013-04-20 16:03:00,
2013-04-20 11:08:00,40.9,30.8,30.28,SW,224,2.6,3.5,67,0.00,CLR,,0.00,WeatherDisplay:10.37,2013-04-20 16:08:00,
2013-04-20 11:13:00,41.0,30.5,30.28,WSW,255,0.7,3.5,66,0.00,CLR,,0.00,WeatherDisplay:10.37,2013-04-20 16:13:00,
2013-04-20 11:18:00,41.8,33.8,30.29,WNW,286,3.3,10.4,73,0.00,CLR,,0.00,WeatherDisplay:10.37,2013-04-20 16:18:00,
2013-04-20 11:23:00,42.0,31.1,30.28,West,263,1.2,3.0,65,0.00,CLR,,0.00,WeatherDisplay:10.37,2013-04-20 16:23:00,
2013-04-20 11:28:00,42.4,33.3,30.28,NW,311,5.0,9.2,70,0.00,CLR,,0.00,WeatherDisplay:10.37,2013-04-20 16:28:00,
2013-04-20 11:33:00,42.9,31.6,30.28,West,274,5.3,9.2,64,0.00,CLR,,0.00,WeatherDisplay:10.37,2013-04-20 16:33:00,
2013-04-20 11:38:00,42.4,29.1,30.28,WNW,287,6.9,10.4,59,0.00,CLR,,0.00,WeatherDisplay:10.37,2013-04-20 16:38:00,
2013-04-20 11:43:00,42.8,28.6,30.28,SSW,199,1.5,4.6,57,0.00,CLR,,0.00,WeatherDisplay:10.37,2013-04-20 16:43:00,
2013-04-20 11:48:00,42.6,28.8,30.28,WNW,290,3.8,5.0,58,0.00,CLR,,0.00,WeatherDisplay:10.37,2013-04-20 16:48:00,
2013-04-20 11:53:00,42.0,27.9,30.28,West,270,3.0,6.9,57,0.00,CLR,,0.00,WeatherDisplay:10.37,2013-04-20 16:53:00,
2013-04-20 11:58:00,42.2,27.6,30.28,WSW,245,5.9,9.2,56,0.00,CLR,,0.00,WeatherDisplay:10.37,2013-04-20 16:58:00,
2013-04-20 12:03:00,42.3,27.7,30.28,WSW,257,4.7,10.4,56,0.00,CLR,,0.00,WeatherDisplay:10.37,2013-04-20 17:03:00,
2013-04-20 12:08:00,42.5,30.8,30.28,WNW,297,6.9,8.1,63,0.00,CLR,,0.00,WeatherDisplay:10.37,2013-04-20 17:08:00,
2013-04-20 12:13:00,41.9,29.0,30.28,WNW,290,5.5,10.4,60,0.00,CLR,,0.00,WeatherDisplay:10.37,2013-04-20 17:13:00,
2013-04-20 12:18:00,42.6,28.8,30.28,West,274,1.6,3.5,58,0.00,CLR,,0.00,WeatherDisplay:10.37,2013-04-20 17:18:00,
2013-04-20 12:23:00,43.7,33.5,30.28,NNW,330,3.1,9.0,67,0.00,CLR,,0.00,WeatherDisplay:10.37,2013-04-20 17:23:00,
2013-04-20 12:28:00,44.5,32.3,30.28,WNW,291,5.1,10.4,62,0.00,CLR,,0.00,WeatherDisplay:10.37,2013-04-20 17:28:00,
2013-04-20 12:33:00,43.3,29.9,30.28,NW,322,1.6,3.5,59,0.00,CLR,,0.00,WeatherDisplay:10.37,2013-04-20 17:33:00,
2013-04-20 12:38:00,42.7,29.4,30.28,WNW,297,3.3,5.8,59,0.00,CLR,,0.00,WeatherDisplay:10.37,2013-04-20 17:38:00,
2013-04-20 12:43:00,42.8,30.7,30.29,WNW,294,3.7,6.0,62,0.00,CLR,,0.00,WeatherDisplay:10.37,2013-04-20 17:43:00,
2013-04-20 12:48:00,42.7,27.6,30.29,NW,316,1.9,8.1,55,0.00,CLR,,0.00,WeatherDisplay:10.37,2013-04-20 17:48:00,
2013-04-20 12:53:00,42.5,27.5,30.28,WNW,300,1.7,6.9,55,0.00,CLR,,0.00,WeatherDisplay:10.37,2013-04-20 17:53:00,
2013-04-20 12:58:00,43.5,30.1,30.29,WNW,295,5.2,6.9,59,0.00,CLR,,0.00,WeatherDisplay:10.37,2013-04-20 17:58:00,
2013-04-20 13:03:00,43.9,28.3,30.29,WNW,298,5.7,6.9,54,0.00,CLR,,0.00,WeatherDisplay:10.37,2013-04-20 18:03:00,
2013-04-20 13:08:00,44.0,29.3,30.28,North,8,4.9,8.1,56,0.00,CLR,,0.00,WeatherDisplay:10.37,2013-04-20 18:08:00,
2013-04-20 13:13:00,44.3,31.3,30.28,NW,319,7.8,12.7,60,0.00,CLR,,0.00,WeatherDisplay:10.37,2013-04-20 18:13:00,
2013-04-20 13:18:00,43.8,27.3,30.28,North,360,2.3,5.0,52,0.00,CLR,,0.00,WeatherDisplay:10.37,2013-04-20 18:18:00,
2013-04-20 13:23:00,44.0,28.0,30.29,NNE,33,1.8,3.5,53,0.00,CLR,,0.00,WeatherDisplay:10.37,2013-04-20 18:23:00,
2013-04-20 13:28:00,45.1,32.4,30.29,WNW,296,7.9,10.4,61,0.00,CLR,,0.00,WeatherDisplay:10.37,2013-04-20 18:28:00,
2013-04-20 13:33:00,45.3,31.4,30.29,NW,316,4.0,6.9,58,0.00,CLR,,0.00,WeatherDisplay:10.37,2013-04-20 18:33:00,
2013-04-20 13:38:00,45.5,30.3,30.28,NNE,26,3.2,3.5,55,0.00,CLR,,0.00,WeatherDisplay:10.37,2013-04-20 18:38:00,
2013-04-20 13:43:00,45.7,32.2,30.28,WNW,290,5.2,8.1,59,0.00,CLR,,0.00,WeatherDisplay:10.37,2013-04-20 18:43:00,
2013-04-20 13:48:00,45.5,27.9,30.29,NW,317,0.5,2.0,50,0.00,CLR,,0.00,WeatherDisplay:10.37,2013-04-20 18:48:00,
2013-04-20 13:53:00,45.4,30.6,30.29,NNW,336,2.9,3.5,56,0.00,CLR,,0.00,WeatherDisplay:10.37,2013-04-20 18:53:00,
2013-04-20 13:55:00,35.1,30.2,30.38,ESE,122,5.0,6.0,82,0.00,CLR,,0.00,WeatherDisplay:10.37,2013-04-20 18:55:00,
2013-04-20 13:58:00,46.1,33.4,30.29,NNE,30,5.2,10.4,61,0.00,CLR,,0.00,WeatherDisplay:10.37,2013-04-20 18:58:00,
2013-04-20 14:00:00,34.9,30.3,30.38,SE,131,5.0,7.0,83,0.00,CLR,,0.00,WeatherDisplay:10.37,2013-04-20 19:00:00,
2013-04-20 14:03:00,45.6,29.9,30.29,North,4,8.5,9.2,54,0.00,CLR,,0.00,WeatherDisplay:10.37,2013-04-20 19:03:00,
2013-04-20 14:05:00,34.8,30.2,30.38,SE,131,5.0,6.0,83,0.00,CLR,,0.00,WeatherDisplay:10.37,2013-04-20 19:05:00,
2013-04-20 14:08:00,45.4,28.8,30.30,NNE,23,3.3,5.0,52,0.00,CLR,,0.00,WeatherDisplay:10.37,2013-04-20 19:08:00,
2013-04-20 14:10:00,34.8,30.2,30.38,SE,128,6.0,7.0,83,0.00,CLR,,0.00,WeatherDisplay:10.37,2013-04-20 19:10:00,
2013-04-20 14:14:00,44.9,31.8,30.29,NW,316,5.6,9.0,60,0.00,CLR,,0.00,WeatherDisplay:10.37,2013-04-20 19:14:00,
2013-04-20 14:15:00,35.0,30.4,30.38,ESE,114,5.0,8.0,83,0.00,CLR,,0.00,WeatherDisplay:10.37,2013-04-20 19:15:00,
2013-04-20 14:19:00,44.0,27.0,30.30,WNW,284,2.0,4.6,51,0.00,CLR,,0.00,WeatherDisplay:10.37,2013-04-20 19:19:00,
2013-04-20 14:20:00,35.1,30.2,30.38,ESE,114,6.0,8.0,82,0.00,CLR,,0.00,WeatherDisplay:10.37,2013-04-20 19:20:00,
2013-04-20 14:24:00,43.8,27.3,30.29,WNW,293,2.5,2.5,52,0.00,CLR,,0.00,WeatherDisplay:10.37,2013-04-20 19:24:00,
2013-04-20 14:25:00,35.1,30.2,30.38,ESE,116,6.0,9.0,82,0.00,CLR,,0.00,WeatherDisplay:10.37,2013-04-20 19:25:00,
2013-04-20 14:29:00,44.4,29.7,30.29,WNW,296,0.5,4.6,56,0.00,CLR,,0.00,WeatherDisplay:10.37,2013-04-20 19:29:00,
2013-04-20 14:30:00,35.2,30.3,30.38,ESE,116,6.0,9.0,82,0.00,CLR,,0.00,WeatherDisplay:10.37,2013-04-20 19:30:00,
2013-04-20 14:34:00,44.9,28.8,30.29,WNW,291,0.2,3.5,53,0.00,CLR,,0.00,WeatherDisplay:10.37,2013-04-20 19:34:00,
2013-04-20 14:35:00,35.3,30.4,30.37,ESE,114,8.0,9.0,82,0.00,CLR,,0.00,WeatherDisplay:10.37,2013-04-20 19:35:00,
2013-04-20 14:39:00,46.0,31.6,30.29,NW,321,2.8,4.6,57,0.00,CLR,,0.00,WeatherDisplay:10.37,2013-04-20 19:39:00,
2013-04-20 14:40:00,35.3,30.4,30.37,ESE,112,8.0,11.0,82,0.00,CLR,,0.00,WeatherDisplay:10.37,2013-04-20 19:40:00,
2013-04-20 14:44:00,46.3,28.2,30.29,NW,322,5.8,8.1,49,0.00,CLR,,0.00,WeatherDisplay:10.37,2013-04-20 19:44:00,
2013-04-20 14:45:00,35.5,30.2,30.37,ESE,112,9.0,11.0,81,0.00,CLR,,0.00,WeatherDisplay:10.37,2013-04-20 19:45:00,
2013-04-20 14:49:00,46.5,31.2,30.29,NW,312,2.3,5.8,55,0.00,CLR,,0.00,WeatherDisplay:10.37,2013-04-20 19:49:00,
2013-04-20 14:50:00,35.6,30.6,30.37,ESE,112,8.0,12.0,82,0.00,CLR,,0.00,WeatherDisplay:10.37,2013-04-20 19:50:00,
2013-04-20 14:54:00,46.4,30.6,30.29,North,11,1.4,3.5,54,0.00,CLR,,0.00,WeatherDisplay:10.37,2013-04-20 19:54:00,
2013-04-20 14:55:00,35.8,30.5,30.37,ESE,112,10.0,12.0,81,0.00,CLR,,0.00,WeatherDisplay:10.37,2013-04-20 19:55:00,
2013-04-20 14:59:00,46.4,28.3,30.29,NNE,27,3.0,5.8,49,0.00,CLR,,0.00,WeatherDisplay:10.37,2013-04-20 19:59:00,
2013-04-20 15:00:00,36.0,30.7,30.37,ESE,114,9.0,12.0,81,0.00,CLR,,0.00,WeatherDisplay:10.37,2013-04-20 20:00:00,
2013-04-20 15:04:00,46.1,29.9,30.29,NW,314,1.8,3.5,53,0.00,CLR,,0.00,WeatherDisplay:10.37,2013-04-20 20:04:00,
2013-04-20 15:05:00,36.1,30.8,30.37,ESE,117,9.0,12.0,81,0.00,CLR,,0.00,WeatherDisplay:10.37,2013-04-20 20:05:00,
2013-04-20 15:09:00,46.8,30.1,30.29,NNE,26,1.3,4.0,52,0.00,CLR,,0.00,WeatherDisplay:10.37,2013-04-20 20:09:00,
2013-04-20 15:10:00,36.4,30.8,30.37,ESE,119,10.0,12.0,80,0.00,CLR,,0.00,WeatherDisplay:10.37,2013-04-20 20:10:00,
2013-04-20 15:14:00,46.9,29.7,30.29,NW,312,4.2,8.1,51,0.00,CLR,,0.00,WeatherDisplay:10.37,2013-04-20 20:14:00,
2013-04-20 15:15:00,36.5,30.9,30.37,ESE,119,9.0,13.0,80,0.00,CLR,,0.00,WeatherDisplay:10.37,2013-04-20 20:15:00,
2013-04-20 15:19:00,46.7,28.0,30.29,NNW,335,1.5,2.3,48,0.00,CLR,,0.00,WeatherDisplay:10.37,2013-04-20 20:19:00,
2013-04-20 15:20:00,36.4,30.8,30.37,ESE,114,10.0,13.0,80,0.00,CLR,,0.00,WeatherDisplay:10.37,2013-04-20 20:20:00,
2013-04-20 15:24:00,46.6,28.4,30.29,WNW,284,0.6,2.3,49,0.00,CLR,,0.00,WeatherDisplay:10.37,2013-04-20 20:24:00,
2013-04-20 15:25:00,36.4,30.8,30.37,ESE,112,12.0,14.0,80,0.00,CLR,,0.00,WeatherDisplay:10.37,2013-04-20 20:25:00,
2013-04-20 15:29:00,46.7,28.5,30.29,SW,223,1.8,3.5,49,0.00,CLR,,0.00,WeatherDisplay:10.37,2013-04-20 20:29:00,
2013-04-20 15:30:00,36.4,31.1,30.37,ESE,112,12.0,14.0,81,0.00,CLR,,0.00,WeatherDisplay:10.37,2013-04-20 20:30:00,
2013-04-20 15:34:00,46.7,28.5,30.29,WSW,250,0.9,2.3,49,0.00,CLR,,0.00,WeatherDisplay:10.37,2013-04-20 20:34:00,
2013-04-20 15:35:00,36.3,31.0,30.36,ESE,112,12.0,14.0,81,0.00,CLR,,0.00,WeatherDisplay:10.37,2013-04-20 20:35:00,
2013-04-20 15:39:00,46.6,28.4,30.29,NW,313,4.0,5.8,49,0.00,CLR,,0.00,WeatherDisplay:10.37,2013-04-20 20:39:00,
2013-04-20 15:40:00,36.4,31.1,30.36,ESE,112,12.0,14.0,81,0.00,CLR,,0.00,WeatherDisplay:10.37,2013-04-20 20:40:00,
2013-04-20 15:44:00,46.4,28.8,30.29,NNE,12,2.3,5.0,50,0.00,CLR,,0.00,WeatherDisplay:10.37,2013-04-20 20:44:00,
2013-04-20 15:45:00,36.7,31.1,30.36,ESE,114,12.0,16.0,80,0.00,CLR,,0.00,WeatherDisplay:10.37,2013-04-20 20:45:00,
2013-04-20 15:49:00,46.6,28.9,30.29,NE,35,3.0,4.6,50,0.00,CLR,,0.00,WeatherDisplay:10.37,2013-04-20 20:49:00,
2013-04-20 15:50:00,36.9,31.0,30.37,ESE,114,12.0,15.0,79,0.00,CLR,,0.00,WeatherDisplay:10.37,2013-04-20 20:50:00,
2013-04-20 15:54:00,46.9,29.7,30.29,NNE,20,2.2,4.0,51,0.00,CLR,,0.00,WeatherDisplay:10.37,2013-04-20 20:54:00,
2013-04-20 15:55:00,36.8,31.2,30.37,ESE,112,12.0,15.0,80,0.00,CLR,,0.00,WeatherDisplay:10.37,2013-04-20 20:55:00,
2013-04-20 15:59:00,46.8,28.6,30.29,NE,54,2.4,5.8,49,0.00,CLR,,0.00,WeatherDisplay:10.37,2013-04-20 20:59:00,
2013-04-20 16:00:00,36.8,31.2,30.37,ESE,112,12.0,15.0,80,0.00,CLR,,0.00,WeatherDisplay:10.37,2013-04-20 21:00:00,
2013-04-20 16:04:00,46.4,25.6,30.29,West,264,2.2,4.6,44,0.00,CLR,,0.00,WeatherDisplay:10.37,2013-04-20 21:04:00,
2013-04-20 16:05:00,36.7,31.1,30.37,ESE,116,12.0,14.0,80,0.00,CLR,,0.00,WeatherDisplay:10.37,2013-04-20 21:05:00,
2013-04-20 16:09:00,46.4,25.6,30.29,NNE,12,1.0,3.5,44,0.00,CLR,,0.00,WeatherDisplay:10.37,2013-04-20 21:09:00,
2013-04-20 16:10:00,36.6,31.0,30.36,ESE,116,13.0,15.0,80,0.00,CLR,,0.00,WeatherDisplay:10.37,2013-04-20 21:10:00,
2013-04-20 16:14:00,46.8,28.6,30.28,NE,46,1.7,6.0,49,0.00,CLR,,0.00,WeatherDisplay:10.37,2013-04-20 21:14:00,
2013-04-20 16:15:00,36.7,31.1,30.36,ESE,112,13.0,16.0,80,0.00,CLR,,0.00,WeatherDisplay:10.37,2013-04-20 21:15:00,
2013-04-20 16:19:00,46.9,28.2,30.28,ENE,58,2.1,5.0,48,0.00,CLR,,0.00,WeatherDisplay:10.37,2013-04-20 21:19:00,
2013-04-20 16:20:00,36.6,31.0,30.36,ESE,112,10.0,16.0,80,0.00,CLR,,0.00,WeatherDisplay:10.37,2013-04-20 21:20:00,
2013-04-20 16:24:00,47.0,27.8,30.28,NNE,16,0.1,1.1,47,0.00,CLR,,0.00,WeatherDisplay:10.37,2013-04-20 21:24:00,
2013-04-20 16:25:00,36.5,30.9,30.36,ESE,112,12.0,16.0,80,0.00,CLR,,0.00,WeatherDisplay:10.37,2013-04-20 21:25:00,
2013-04-20 16:29:00,47.5,29.8,30.29,NE,37,3.3,5.8,50,0.00,CLR,,0.00,WeatherDisplay:10.37,2013-04-20 21:29:00,
2013-04-20 16:30:00,36.5,30.9,30.36,ESE,112,12.0,15.0,80,0.00,CLR,,0.00,WeatherDisplay:10.37,2013-04-20 21:30:00,
2013-04-20 16:34:00,47.5,27.2,30.29,NNW,335,2.3,4.6,45,0.00,CLR,,0.00,WeatherDisplay:10.37,2013-04-20 21:34:00,
2013-04-20 16:35:00,36.4,31.1,30.36,ESE,114,10.0,12.0,81,0.00,CLR,,0.00,WeatherDisplay:10.37,2013-04-20 21:35:00,
2013-04-20 16:39:00,47.6,28.3,30.28,NNW,340,2.1,3.5,47,0.00,CLR,,0.00,WeatherDisplay:10.37,2013-04-20 21:39:00,
2013-04-20 16:40:00,36.5,31.2,30.37,ESE,116,10.0,14.0,81,0.00,CLR,,0.00,WeatherDisplay:10.37,2013-04-20 21:40:00,
2013-04-20 16:44:00,47.5,27.2,30.29,NW,316,1.1,2.3,45,0.00,CLR,,0.00,WeatherDisplay:10.37,2013-04-20 21:44:00,
2013-04-20 16:45:00,36.4,31.1,30.37,ESE,114,9.0,12.0,81,0.00,CLR,,0.00,WeatherDisplay:10.37,2013-04-20 21:45:00,
2013-04-20 16:49:00,47.6,27.3,30.29,NW,311,0.0,0.0,45,0.00,CLR,,0.00,WeatherDisplay:10.37,2013-04-20 21:49:00,
2013-04-20 16:50:00,36.4,31.1,30.37,ESE,112,9.0,13.0,81,0.00,CLR,,0.00,WeatherDisplay:10.37,2013-04-20 21:50:00,
2013-04-20 16:54:00,47.7,27.9,30.28,West,276,0.1,1.1,46,0.00,CLR,,0.00,WeatherDisplay:10.37,2013-04-20 21:54:00,
2013-04-20 16:55:00,36.4,31.4,30.37,ESE,112,10.0,12.0,82,0.00,CLR,,0.00,WeatherDisplay:10.37,2013-04-20 21:55:00,
2013-04-20 16:59:00,48.1,29.3,30.28,NW,324,2.8,8.1,48,0.00,CLR,,0.00,WeatherDisplay:10.37,2013-04-20 21:59:00,
2013-04-20 17:00:00,36.5,31.2,30.37,ESE,114,10.0,14.0,81,0.00,CLR,,0.00,WeatherDisplay:10.37,2013-04-20 22:00:00,
2013-04-20 17:04:00,48.0,26.5,30.28,North,4,2.8,3.5,43,0.00,CLR,,0.00,WeatherDisplay:10.37,2013-04-20 22:04:00,
2013-04-20 17:05:00,36.5,31.2,30.37,ESE,114,9.0,15.0,81,0.00,CLR,,0.00,WeatherDisplay:10.37,2013-04-20 22:05:00,
2013-04-20 17:09:00,47.7,27.9,30.28,North,352,1.9,3.5,46,0.00,CLR,,0.00,WeatherDisplay:10.37,2013-04-20 22:09:00,
2013-04-20 17:10:00,36.5,31.5,30.37,ESE,112,9.0,13.0,82,0.00,CLR,,0.00,WeatherDisplay:10.37,2013-04-20 22:10:00,
2013-04-20 17:14:00,47.6,28.3,30.28,ENE,62,0.1,1.1,47,0.00,CLR,,0.00,WeatherDisplay:10.37,2013-04-20 22:14:00,
2013-04-20 17:15:00,36.4,31.4,30.37,ESE,112,12.0,13.0,82,0.00,CLR,,0.00,WeatherDisplay:10.37,2013-04-20 22:15:00,
2013-04-20 17:19:00,47.7,30.0,30.28,ENE,72,1.4,3.0,50,0.00,CLR,,0.00,WeatherDisplay:10.37,2013-04-20 22:19:00,
2013-04-20 17:20:00,36.3,31.3,30.37,ESE,117,10.0,13.0,82,0.00,CLR,,0.00,WeatherDisplay:10.37,2013-04-20 22:20:00,
2013-04-20 17:24:00,47.7,30.0,30.28,ESE,113,2.3,4.6,50,0.00,CLR,,0.00,WeatherDisplay:10.37,2013-04-20 22:24:00,
2013-04-20 17:25:00,36.2,31.5,30.38,ESE,122,9.0,12.0,83,0.00,CLR,,0.00,WeatherDisplay:10.37,2013-04-20 22:25:00,
2013-04-20 17:29:00,47.5,28.8,30.28,ESE,113,1.4,3.5,48,0.00,CLR,,0.00,WeatherDisplay:10.37,2013-04-20 22:29:00,
2013-04-20 17:30:00,36.3,31.3,30.38,ESE,119,8.0,11.0,82,0.00,CLR,,0.00,WeatherDisplay:10.37,2013-04-20 22:30:00,
2013-04-20 17:34:00,47.2,28.0,30.28,ESE,113,1.5,3.5,47,0.00,CLR,,0.00,WeatherDisplay:10.37,2013-04-20 22:34:00,
2013-04-20 17:35:00,36.3,31.6,30.38,ESE,114,8.0,13.0,83,0.00,CLR,,0.00,WeatherDisplay:10.37,2013-04-20 22:35:00,
2013-04-20 17:39:00,47.4,29.2,30.28,East,79,0.1,1.1,49,0.00,CLR,,0.00,WeatherDisplay:10.37,2013-04-20 22:39:00,
2013-04-20 17:40:00,36.4,31.4,30.39,ESE,114,8.0,11.0,82,0.00,CLR,,0.00,WeatherDisplay:10.37,2013-04-20 22:40:00,
2013-04-20 17:44:00,47.6,26.7,30.28,WSW,246,0.0,0.0,44,0.00,CLR,,0.00,WeatherDisplay:10.37,2013-04-20 22:44:00,
2013-04-20 17:45:00,36.5,31.5,30.39,ESE,121,5.0,9.0,82,0.00,CLR,,0.00,WeatherDisplay:10.37,2013-04-20 22:45:00,
2013-04-20 17:49:00,48.4,26.9,30.29,SSW,192,1.0,2.0,43,0.00,CLR,,0.00,WeatherDisplay:10.37,2013-04-20 22:49:00,
2013-04-20 17:50:00,36.5,31.5,30.40,SE,124,7.0,10.0,82,0.00,CLR,,0.00,WeatherDisplay:10.37,2013-04-20 22:50:00,
2013-04-20 17:54:00,48.5,27.6,30.29,WNW,287,0.3,2.0,44,0.00,CLR,,0.00,WeatherDisplay:10.37,2013-04-20 22:54:00,
2013-04-20 17:55:00,36.5,31.5,30.40,SE,126,6.0,9.0,82,0.00,CLR,,0.00,WeatherDisplay:10.37,2013-04-20 22:55:00,
2013-04-20 17:59:00,48.2,27.8,30.29,NE,54,1.9,2.3,45,0.00,CLR,,0.00,WeatherDisplay:10.37,2013-04-20 22:59:00,
2013-04-20 18:00:00,36.5,31.8,30.40,SE,133,7.0,9.0,83,0.00,CLR,,0.00,WeatherDisplay:10.37,2013-04-20 23:00:00,
2013-04-20 18:04:00,47.4,27.6,30.29,ESE,117,0.2,1.1,46,0.00,CLR,,0.00,WeatherDisplay:10.37,2013-04-20 23:04:00,
2013-04-20 18:05:00,36.5,31.5,30.39,SE,127,10.0,12.0,82,0.00,CLR,,0.00,WeatherDisplay:10.37,2013-04-20 23:05:00,
2013-04-20 18:09:00,47.3,27.5,30.29,NNE,24,0.0,1.1,46,0.00,CLR,,0.00,WeatherDisplay:10.37,2013-04-20 23:09:00,
2013-04-20 18:10:00,36.6,31.6,30.39,SE,127,10.0,14.0,82,0.00,CLR,,0.00,WeatherDisplay:10.37,2013-04-20 23:10:00,
2013-04-20 18:14:00,46.9,26.1,30.29,NE,52,0.8,2.0,44,0.00,CLR,,0.00,WeatherDisplay:10.37,2013-04-20 23:14:00,
2013-04-20 18:15:00,36.7,31.7,30.39,SE,124,10.0,15.0,82,0.00,CLR,,0.00,WeatherDisplay:10.37,2013-04-20 23:15:00,
2013-04-20 18:19:00,46.5,26.3,30.30,NE,48,1.2,3.5,45,0.00,CLR,,0.00,WeatherDisplay:10.37,2013-04-20 23:19:00,
2013-04-20 18:20:00,36.8,31.5,30.40,ESE,121,10.0,14.0,81,0.00,CLR,,0.00,WeatherDisplay:10.37,2013-04-20 23:20:00,
2013-04-20 18:24:00,46.1,26.4,30.30,ENE,68,3.5,4.6,46,0.00,CLR,,0.00,WeatherDisplay:10.37,2013-04-20 23:24:00,
2013-04-20 18:25:00,36.8,31.5,30.40,SE,125,10.0,13.0,81,0.00,CLR,,0.00,WeatherDisplay:10.37,2013-04-20 23:25:00,
2013-04-20 18:29:00,46.0,27.4,30.30,NE,49,2.4,3.5,48,0.00,CLR,,0.00,WeatherDisplay:10.37,2013-04-20 23:29:00,
2013-04-20 18:30:00,36.8,31.5,30.41,SE,127,7.0,11.0,81,0.00,CLR,,0.00,WeatherDisplay:10.37,2013-04-20 23:30:00,
2013-04-20 18:34:00,45.7,26.1,30.30,NE,46,1.4,2.3,46,0.00,CLR,,0.00,WeatherDisplay:10.37,2013-04-20 23:34:00,
2013-04-20 18:35:00,36.8,31.8,30.41,SE,132,8.0,10.0,82,0.00,CLR,,0.00,WeatherDisplay:10.37,2013-04-20 23:35:00,
2013-04-20 18:39:00,45.9,26.8,30.30,NNE,12,1.1,2.0,47,0.00,CLR,,0.00,WeatherDisplay:10.37,2013-04-20 23:39:00,
2013-04-20 18:40:00,36.8,31.8,30.42,SE,135,7.0,10.0,82,0.00,CLR,,0.00,WeatherDisplay:10.37,2013-04-20 23:40:00,
2013-04-20 18:44:00,45.8,27.2,30.30,ESE,122,0.1,1.1,48,0.00,CLR,,0.00,WeatherDisplay:10.37,2013-04-20 23:44:00,
2013-04-20 18:45:00,36.9,31.6,30.42,SE,135,9.0,11.0,81,0.00,CLR,,0.00,WeatherDisplay:10.37,2013-04-20 23:45:00,
2013-04-20 18:49:00,45.7,26.1,30.30,NE,53,0.6,2.3,46,0.00,CLR,,0.00,WeatherDisplay:10.37,2013-04-20 23:49:00,
2013-04-20 18:50:00,36.9,31.9,30.42,SE,135,8.0,11.0,82,0.00,CLR,,0.00,WeatherDisplay:10.37,2013-04-20 23:50:00,
2013-04-20 18:54:00,45.6,26.0,30.30,ENE,58,0.6,1.1,46,0.00,CLR,,0.00,WeatherDisplay:10.37,2013-04-20 23:54:00,
2013-04-20 18:55:00,37.1,31.8,30.42,SE,135,9.0,12.0,81,0.00,CLR,,0.00,WeatherDisplay:10.37,2013-04-20 23:55:00,
2013-04-20 18:59:00,45.5,26.4,30.30,East,99,0.4,1.0,47,0.00,CLR,,0.00,WeatherDisplay:10.37,2013-04-20 23:59:00,
2013-04-20 19:00:00,37.2,31.9,30.43,SE,135,10.0,12.0,81,0.00,CLR,,0.00,WeatherDisplay:10.37,2013-04-21 00:00:00,
2013-04-20 19:04:00,45.5,26.4,30.30,ENE,72,0.1,1.0,47,0.00,CLR,,0.00,WeatherDisplay:10.37,2013-04-21 00:04:00,
2013-04-20 19:05:00,37.3,32.0,30.43,SE,135,10.0,13.0,81,0.00,CLR,,0.00,WeatherDisplay:10.37,2013-04-21 00:05:00,
2013-04-20 19:09:00,45.3,27.7,30.30,SSE,148,0.9,3.5,50,0.00,CLR,,0.00,WeatherDisplay:10.37,2013-04-21 00:09:00,
2013-04-20 19:10:00,37.4,32.4,30.43,SE,130,8.0,12.0,82,0.00,CLR,,0.00,WeatherDisplay:10.37,2013-04-21 00:10:00,
2013-04-20 19:14:00,45.0,29.8,30.31,NE,52,1.2,1.2,55,0.00,CLR,,0.00,WeatherDisplay:10.37,2013-04-21 00:14:00,
2013-04-20 19:15:00,37.5,32.2,30.43,SE,125,9.0,13.0,81,0.00,CLR,,0.00,WeatherDisplay:10.37,2013-04-21 00:15:00,
2013-04-20 19:19:00,44.8,29.6,30.31,ESE,102,2.7,3.5,55,0.00,CLR,,0.00,WeatherDisplay:10.37,2013-04-21 00:19:00,
2013-04-20 19:20:00,37.7,32.4,30.43,ESE,123,12.0,13.0,81,0.00,CLR,,0.00,WeatherDisplay:10.37,2013-04-21 00:20:00,
2013-04-20 19:24:00,44.6,31.1,30.31,ESE,115,2.3,5.0,59,0.00,CLR,,0.00,WeatherDisplay:10.37,2013-04-21 00:24:00,
2013-04-20 19:25:00,37.9,32.6,30.43,ESE,121,10.0,14.0,81,0.00,CLR,,0.00,WeatherDisplay:10.37,2013-04-21 00:25:00,
2013-04-20 19:29:00,44.3,31.3,30.31,East,95,0.3,2.3,60,0.00,CLR,,0.00,WeatherDisplay:10.37,2013-04-21 00:29:00,
2013-04-20 19:30:00,38.1,32.5,30.43,ESE,123,12.0,15.0,80,0.00,CLR,,0.00,WeatherDisplay:10.37,2013-04-21 00:30:00,
2013-04-20 19:34:00,44.0,31.4,30.31,SE,127,0.5,0.0,61,0.00,CLR,,0.00,WeatherDisplay:10.37,2013-04-21 00:34:00,
2013-04-20 19:35:00,38.3,32.4,30.43,ESE,119,10.0,17.0,79,0.00,CLR,,0.00,WeatherDisplay:10.37,2013-04-21 00:35:00,
2013-04-20 19:39:00,43.7,32.3,30.31,ESE,120,2.0,3.5,64,0.00,CLR,,0.00,WeatherDisplay:10.37,2013-04-21 00:39:00,
2013-04-20 19:40:00,38.5,32.6,30.43,ESE,112,10.0,15.0,79,0.00,CLR,,0.00,WeatherDisplay:10.37,2013-04-21 00:40:00,
2013-04-20 19:44:00,43.4,32.0,30.31,ESE,120,0.1,2.3,64,0.00,CLR,,0.00,WeatherDisplay:10.37,2013-04-21 00:44:00,
2013-04-20 19:45:00,38.7,32.7,30.44,ESE,117,12.0,16.0,79,0.00,CLR,,0.00,WeatherDisplay:10.37,2013-04-21 00:45:00,
2013-04-20 19:50:00,43.2,31.8,30.32,ENE,77,1.6,3.5,64,0.00,CLR,,0.00,WeatherDisplay:10.37,2013-04-21 00:50:00,
2013-04-20 19:54:00,42.9,32.3,30.32,SE,140,1.4,4.6,66,0.00,CLR,,0.00,WeatherDisplay:10.37,2013-04-21 00:54:00,
2013-04-20 19:55:00,39.1,32.8,30.44,SE,126,13.0,18.0,78,0.00,CLR,,0.00,WeatherDisplay:10.37,2013-04-21 00:55:00,
2013-04-20 19:59:00,42.6,32.0,30.32,ESE,103,1.0,2.3,66,0.00,CLR,,0.00,WeatherDisplay:10.37,2013-04-21 00:59:00,
2013-04-20 20:00:00,39.3,33.0,30.43,SE,128,12.0,18.0,78,0.00,CLR,,0.00,WeatherDisplay:10.37,2013-04-21 01:00:00,
2013-04-20 20:04:00,42.4,32.2,30.32,ESE,108,2.1,4.0,67,0.00,,,0.00,WeatherDisplay:10.37,2013-04-21 01:04:00,
2013-04-20 20:05:00,39.4,32.5,30.43,ESE,119,16.0,19.0,76,0.00,CLR,,0.00,WeatherDisplay:10.37,2013-04-21 01:05:00,
2013-04-20 20:09:00,42.2,32.0,30.33,East,98,2.3,3.5,67,0.00,,,0.00,WeatherDisplay:10.37,2013-04-21 01:09:00,
2013-04-20 20:10:00,39.7,32.8,30.43,ESE,116,15.0,18.0,76,0.00,CLR,,0.00,WeatherDisplay:10.37,2013-04-21 01:10:00,
2013-04-20 20:14:00,42.0,31.8,30.33,ESE,102,1.7,3.5,67,0.00,,,0.00,WeatherDisplay:10.37,2013-04-21 01:14:00,
2013-04-20 20:15:00,40.0,33.4,30.43,SE,125,12.0,20.0,77,0.00,CLR,,0.00,WeatherDisplay:10.37,2013-04-21 01:15:00,
2013-04-20 20:20:00,41.8,32.0,30.33,ESE,110,2.6,3.5,68,0.00,,,0.00,WeatherDisplay:10.37,2013-04-21 01:20:00,
2013-04-20 20:25:00,41.5,33.1,30.33,ESE,110,1.4,3.5,72,0.00,,,0.00,WeatherDisplay:10.37,2013-04-21 01:25:00,
2013-04-20 20:30:00,40.8,33.8,30.34,ESE,110,1.8,2.3,76,0.00,,,0.00,WeatherDisplay:10.37,2013-04-21 01:30:00,
2013-04-20 20:35:00,40.4,33.4,30.34,ESE,111,1.0,2.0,76,0.00,,,0.00,WeatherDisplay:10.37,2013-04-21 01:35:00,
2013-04-20 20:40:00,40.4,32.8,30.34,ESE,104,1.7,2.3,74,0.00,,,0.00,WeatherDisplay:10.37,2013-04-21 01:40:00,
2013-04-20 20:45:00,40.5,33.2,30.34,ESE,107,2.0,3.0,75,0.00,,,0.00,WeatherDisplay:10.37,2013-04-21 01:45:00,
2013-04-20 20:50:00,40.4,33.1,30.34,ESE,110,2.8,3.5,75,0.00,,,0.00,WeatherDisplay:10.37,2013-04-21 01:50:00,
2013-04-20 20:55:00,40.5,32.8,30.34,ESE,103,3.0,4.0,74,0.00,,,0.00,WeatherDisplay:10.37,2013-04-21 01:55:00,
2013-04-20 21:00:00,40.4,33.1,30.34,ESE,105,2.0,5.0,75,0.00,CLR,,0.00,WeatherDisplay:10.37,2013-04-21 02:00:00,
2013-04-20 21:05:00,40.1,33.5,30.34,ESE,103,1.9,3.5,77,0.00,CLR,,0.00,WeatherDisplay:10.37,2013-04-21 02:05:00,
2013-04-20 21:10:00,39.9,33.6,30.35,ESE,108,1.7,3.5,78,0.00,CLR,,0.00,WeatherDisplay:10.37,2013-04-21 02:10:00,
2013-04-20 21:15:00,39.6,33.3,30.35,ESE,103,1.2,2.3,78,0.00,CLR,,0.00,WeatherDisplay:10.37,2013-04-21 02:15:00,
2013-04-20 21:20:00,39.4,32.8,30.35,ESE,117,2.9,3.5,77,0.00,CLR,,0.00,WeatherDisplay:10.37,2013-04-21 02:20:00,
2013-04-20 21:25:00,39.2,32.9,30.35,ESE,115,1.9,2.3,78,0.00,CLR,,0.00,WeatherDisplay:10.37,2013-04-21 02:25:00,
2013-04-20 21:30:00,38.8,32.5,30.35,ESE,111,2.4,3.5,78,0.00,CLR,,0.00,WeatherDisplay:10.37,2013-04-21 02:30:00,
2013-04-20 21:35:00,38.9,31.6,30.36,ESE,113,2.3,3.5,75,0.00,CLR,,0.00,WeatherDisplay:10.37,2013-04-21 02:35:00,
2013-04-20 21:40:00,39.0,31.1,30.36,ESE,108,2.3,3.5,73,0.00,CLR,,0.00,WeatherDisplay:10.37,2013-04-21 02:40:00,
2013-04-20 21:45:00,39.1,31.2,30.36,ESE,117,2.1,3.5,73,0.00,CLR,,0.00,WeatherDisplay:10.37,2013-04-21 02:45:00,
2013-04-20 21:50:00,39.2,30.9,30.36,ESE,111,2.7,3.5,72,0.00,CLR,,0.00,WeatherDisplay:10.37,2013-04-21 02:50:00,
2013-04-20 21:55:00,39.0,31.1,30.36,ESE,111,3.0,3.5,73,0.00,CLR,,0.00,WeatherDisplay:10.37,2013-04-21 02:55:00,
2013-04-20 22:00:00,38.8,30.9,30.36,ESE,105,3.0,3.5,73,0.00,CLR,,0.00,WeatherDisplay:10.37,2013-04-21 03:00:00,
2013-04-20 22:05:00,38.9,31.0,30.36,ESE,102,3.6,4.6,73,0.00,CLR,,0.00,WeatherDisplay:10.37,2013-04-21 03:05:00,
2013-04-20 22:10:00,38.8,31.2,30.36,ESE,105,3.5,4.0,74,0.00,CLR,,0.00,WeatherDisplay:10.37,2013-04-21 03:10:00,
2013-04-20 22:15:00,38.5,31.3,30.36,ESE,111,3.9,4.6,75,0.00,CLR,,0.00,WeatherDisplay:10.37,2013-04-21 03:15:00,
2013-04-20 22:20:00,38.4,31.5,30.36,ESE,115,3.8,4.0,76,0.00,CLR,,0.00,WeatherDisplay:10.37,2013-04-21 03:20:00,
2013-04-20 22:25:00,38.3,31.4,30.36,ESE,115,5.0,6.0,76,0.00,CLR,,0.00,WeatherDisplay:10.37,2013-04-21 03:25:00,
2013-04-20 22:30:00,38.1,30.9,30.36,ESE,108,6.6,7.0,75,0.00,CLR,,0.00,WeatherDisplay:10.37,2013-04-21 03:30:00,
2013-04-20 22:35:00,38.1,31.2,30.36,ESE,112,5.6,5.8,76,0.00,CLR,,0.00,WeatherDisplay:10.37,2013-04-21 03:35:00,
2013-04-20 22:40:00,38.1,30.9,30.35,ESE,111,4.0,6.9,75,0.00,CLR,,0.00,WeatherDisplay:10.37,2013-04-21 03:40:00,
2013-04-20 22:45:00,38.1,30.9,30.36,ESE,109,5.7,6.9,75,0.00,CLR,,0.00,WeatherDisplay:10.37,2013-04-21 03:45:00,
2013-04-20 22:50:00,37.9,31.3,30.36,ESE,115,4.7,6.0,77,0.00,CLR,,0.00,WeatherDisplay:10.37,2013-04-21 03:50:00,
2013-04-20 22:55:00,37.7,31.1,30.36,ESE,110,3.4,3.5,77,0.00,CLR,,0.00,WeatherDisplay:10.37,2013-04-21 03:55:00,
2013-04-20 23:00:00,37.5,31.3,30.36,ESE,108,4.1,4.6,78,0.00,,,0.00,WeatherDisplay:10.37,2013-04-21 04:00:00,
2013-04-20 23:01:00,37.5,31.3,30.36,ESE,115,3.8,4.6,78,0.00,,,0.00,WeatherDisplay:10.37,2013-04-21 04:01:00,
2013-04-20 23:05:00,47.5,35.1,30.41,SE,140,20.0,23.0,62,0.00,CLR,,0.00,WeatherDisplay:10.37,2013-04-21 04:05:00,
2013-04-20 23:06:00,37.9,31.0,30.36,ESE,108,3.7,5.8,76,0.00,,,0.00,WeatherDisplay:10.37,2013-04-21 04:06:00,
2013-04-20 23:10:00,47.6,36.0,30.41,SE,135,17.0,24.0,64,0.00,CLR,,0.00,WeatherDisplay:10.37,2013-04-21 04:10:00,
2013-04-20 23:11:00,37.9,31.3,30.36,ESE,121,4.3,4.6,77,0.00,,,0.00,WeatherDisplay:10.37,2013-04-21 04:11:00,
2013-04-20 23:15:00,47.6,36.0,30.41,SE,135,16.0,22.0,64,0.00,CLR,,0.00,WeatherDisplay:10.37,2013-04-21 04:15:00,
2013-04-20 23:16:00,37.7,30.8,30.36,ESE,114,7.0,8.1,76,0.00,,,0.00,WeatherDisplay:10.37,2013-04-21 04:16:00,
2013-04-20 23:20:00,47.4,35.4,30.40,SE,135,20.0,24.0,63,0.00,CLR,,0.00,WeatherDisplay:10.37,2013-04-21 04:20:00,
2013-04-20 23:21:00,37.9,30.7,30.36,ESE,119,4.9,5.8,75,0.00,,,0.00,WeatherDisplay:10.37,2013-04-21 04:21:00,
2013-04-20 23:25:00,47.3,35.3,30.40,SE,135,18.0,24.0,63,0.00,CLR,,0.00,WeatherDisplay:10.37,2013-04-21 04:25:00,
2013-04-20 23:26:00,37.9,30.4,30.36,SE,135,5.2,7.0,74,0.00,,,0.00,WeatherDisplay:10.37,2013-04-21 04:26:00,
2013-04-20 23:30:00,47.2,35.6,30.40,SE,137,18.0,23.0,64,0.00,CLR,,0.00,WeatherDisplay:10.37,2013-04-21 04:30:00,
2013-04-20 23:31:00,37.9,30.4,30.36,ESE,117,5.8,6.9,74,0.00,,,0.00,WeatherDisplay:10.37,2013-04-21 04:31:00,
2013-04-20 23:35:00,47.3,35.7,30.39,SE,137,20.0,24.0,64,0.00,CLR,,0.00,WeatherDisplay:10.37,2013-04-21 04:35:00,
2013-04-20 23:36:00,37.9,30.4,30.37,ESE,116,6.5,8.1,74,0.00,,,0.00,WeatherDisplay:10.37,2013-04-21 04:36:00,
2013-04-20 23:40:00,47.8,37.0,30.39,SE,135,17.0,22.0,66,0.00,CLR,,0.00,WeatherDisplay:10.37,2013-04-21 04:40:00,
2013-04-20 23:41:00,38.0,30.1,30.37,ESE,114,7.5,10.4,73,0.00,,,0.00,WeatherDisplay:10.37,2013-04-21 04:41:00,
2013-04-20 23:45:00,48.3,36.3,30.39,SE,135,16.0,24.0,63,0.00,CLR,,0.00,WeatherDisplay:10.37,2013-04-21 04:45:00,
2013-04-20 23:46:00,37.7,30.5,30.37,ESE,117,5.3,5.8,75,0.00,,,0.00,WeatherDisplay:10.37,2013-04-21 04:46:00,
2013-04-20 23:50:00,49.4,38.1,30.39,SE,135,17.0,24.0,65,0.00,CLR,,0.00,WeatherDisplay:10.37,2013-04-21 04:50:00,
2013-04-20 23:51:00,37.2,30.7,30.37,SE,134,4.3,5.8,77,0.00,,,0.00,WeatherDisplay:10.37,2013-04-21 04:51:00,
2013-04-20 23:55:00,50.1,37.6,30.38,SE,135,20.0,27.0,62,0.00,CLR,,0.00,WeatherDisplay:10.37,2013-04-21 04:55:00,
2013-04-20 23:56:00,36.6,30.4,30.37,SE,125,4.7,5.0,78,0.00,,,0.00,WeatherDisplay:10.37,2013-04-21 04:56:00,